Edna St. Vincent Millay

(22 February 1892 – 19 October 1950 / Rockland / Maine / United States)

Stats

» Click to list general statistics » OR, select a date :

General Statistics

Visitors of the poet

Number of visitors of the poet’s mainpage in PoemHunter.Com

Attention : Numbers in this table does not indicate the total hits of poems of the poet, but indicates the hits of the poet’s main page.

Date Hits
01/25/2015 Sunday 705
35%
01/24/2015 Saturday 1564
79%
01/23/2015 Friday 1358
68%
01/22/2015 Thursday 770
38%
01/21/2015 Wednesday 778
39%
01/20/2015 Tuesday 1339
67%
01/19/2015 Monday 1177
59%
01/18/2015 Sunday 1207
61%
01/17/2015 Saturday 1124
56%
01/16/2015 Friday 1132
57%
01/15/2015 Thursday 941
47%
01/14/2015 Wednesday 965
48%
01/13/2015 Tuesday 1738
87%
01/12/2015 Monday 1976
100%
01/11/2015 Sunday 1227
62%
01/10/2015 Saturday 1485
75%
01/09/2015 Friday 907
45%
01/08/2015 Thursday 863
43%
01/07/2015 Wednesday 1351
68%
01/06/2015 Tuesday 1127
57%

Reader rating & num.of MyPoemList’s

Click the captions of columns to change the order.

# Poem Title Submit Date Reader Rating Num.of MyPoemList’s
Rating Num.R.
1 The Courage That My Mother Had 01/03/2015 -- 0 1
2 Childhood is the Kingdom Where Nobody Dies 11/28/2014 -- 0 0
3 To Kathleen 01/01/2004 5.5 57 4
4 Euclid Alone 01/01/2004 5.7 46 16
5 Grown-up 01/01/2004 6.2 25 31
6 The Betrothal 01/01/2004 5.6 37 13
7 The Blue Flag in the Bog 01/01/2004 5.9 34 4
8 [Four Sonnets (1922)] 01/01/2004 5.2 106 30
9 When I Too Long Have Looked Upon Your Face 01/01/2004 6.2 36 30
10 Bluebeard 01/01/2004 5.5 80 42
11 And you as well must die, belovèd dust 01/01/2004 6.0 76 52
12 Thursday 01/01/2004 5.3 76 11
13 To a Young Poet 01/01/2004 5.9 61 9
14 If I Should Learn, In Some Quite Casual Way 01/01/2004 6.4 40 36
15 Lines for a Grave-Stone 01/01/2004 6.1 37 7
16 Sonnet III: Mindful of you the sodden earth 01/01/2004 5.6 42 5
17 Sonnet IV: Not in this chamber 01/01/2004 5.5 42 3
18 I Shall Go Back 01/01/2004 5.5 39 25
19 No rose that in a garden ever grew 01/01/2004 5.5 36 12
20 We Talk of Taxes... 01/01/2004 6.2 28 4
21 I, Being Born a Woman and Distressed 01/01/2004 6.7 33 53
22 Sonnet V: If I should learn 01/01/2004 5.3 48 4
23 Recuerdo 01/01/2004 6.5 43 19
24 Humoresque 01/01/2004 5.6 30 16
25 I do but ask that you be always fair 01/01/2004 5.5 42 29
26 Sonnet II: Time does not bring relief 01/01/2004 6.0 47 25
27 Sonnets (1923) 01/01/2004 5.3 49 6
28 Oh, my belovèd, have you thought of this 01/01/2004 6.0 36 12
29 Only until this cigarette is ended 01/01/2004 5.5 36 44
30 Sonnet VI: This door you might not open 01/01/2004 5.9 49 12
31 Sonnet I: Thou art not lovelier than lilacs 01/01/2004 5.6 43 10
32 Counting-Out Rhyme 01/01/2004 6.1 98 22
33 I Know 100 Ways to Die 07/07/2003 7.8 4 28
34 Chorus 01/13/2003 5.8 82 22
35 Sonnet (Women Have Loved Before As I Love Now) 01/13/2003 5.9 44 18
36 Inland 01/13/2003 5.5 36 7
37 The Wood Road 01/13/2003 5.8 44 5
38 Fontaine, Je Ne Boirai Pas De Ton Eau! 01/13/2003 5.5 31 8
39 Ebb 01/13/2003 5.5 81 25
40 Second Fig 01/13/2003 6.0 47 27
41 Wraith 01/13/2003 5.6 29 12
42 I Dreamed I Moved Among The Elysian Fields 01/13/2003 5.9 67 25
43 Memorial To D.C. 01/13/2003 5.8 31 2
44 The Plaid Dress 01/13/2003 5.8 46 10
45 Interim 01/13/2003 6.1 36 14
46 Midnight Oil 01/13/2003 5.9 35 11
47 Love Is Not All 01/13/2003 7.4 79 170
48 Portrait By A Neighbour 01/13/2003 5.9 35 8
49 Rosemary 01/13/2003 5.5 44 6
50 Not Even My Pride Shall Suffer Much 01/13/2003 5.7 37 9
51 The Leaf And The Tree 01/13/2003 5.8 59 15
52 Kin To Sorrow 01/13/2003 5.5 34 20
53 Lines Written In Recapitulation 01/13/2003 6.2 49 4
54 City Trees 01/13/2003 5.8 134 57
55 To A Poet That Died Young 01/13/2003 5.8 43 7
56 The Shroud 01/13/2003 5.5 57 4
57 Night Is My Sister, And How Deep In Love 01/13/2003 5.7 35 25
58 Sorrow 01/13/2003 5.7 53 26
59 Underground System 01/13/2003 5.8 34 3
60 Apostrophe To Man 01/13/2003 5.8 118 32
61 The Curse 01/13/2003 5.9 68 12
62 Two Sonnets In Memory 01/13/2003 5.9 31 5
63 Scrub 01/13/2003 5.7 42 4
64 Dirge Without Music 01/13/2003 6.5 101 64
65 Spring 01/13/2003 6.0 44 21
66 When We Are Old And These Rejoicing Veins 01/13/2003 5.7 35 14
67 Sonnets 09: Let You Not Say Of Me When I Am Old 01/13/2003 5.6 51 9
68 The Spring And The Fall 01/13/2003 8.0 110 63
69 Sonnets 11: As To Some Lovely Temple, Tenantless 01/13/2003 5.7 44 3
70 Sweet Love, Sweet Thorn, When Lightly To My Heart 01/13/2003 5.6 45 16
71 The Little Hill 01/13/2003 5.8 54 7
72 Wild Swans 01/13/2003 5.9 32 14
73 Think Not, Not For A Moment Let Your Mind 01/13/2003 5.7 54 14
74 Sonnets 12: Cherish You Then The Hope I Shall Forget 01/13/2003 5.5 61 3
75 The Penitent 01/13/2003 5.6 30 10
76 The Goose-Girl 01/13/2003 5.8 69 9
77 Sonnets From An Ungrafted Tree 01/13/2003 5.7 46 4
78 Alms 01/13/2003 5.7 92 26
79 Not In A Silver Casket Cool With Pearls 01/13/2003 5.9 38 20
80 Doubt No More That Oberon 01/13/2003 5.6 66 12
81 Justice Denied In Massachusetts 01/13/2003 5.8 33 8
82 Menses 01/13/2003 5.5 32 6
83 The Fledgling 01/13/2003 5.4 49 2
84 Sonnets 04: Only Until This Cigarette Is Ended 01/13/2003 5.8 34 11
85 I Know I Am But Summer To Your Heart 01/13/2003 6.5 40 47
86 Mist In The Valley 01/13/2003 5.4 33 14
87 The Concert 01/13/2003 5.5 71 7
88 The Singing-Woman From The Wood's Edge 01/13/2003 5.9 45 7
89 The Suicide 01/13/2003 5.5 58 18
90 The True Encounter 01/13/2003 5.9 54 6
91 Whereas At Morning In A Jeweled Crown 01/13/2003 5.4 42 6
92 Weeds 01/13/2003 8.0 1 8
93 The Bean-Stalk 01/13/2003 5.6 58 5
94 Sonnet 03: Mindful Of You The Sodden Earth In Spring 01/13/2003 5.4 42 5
95 The Ballad Of The Harp-Weaver 01/13/2003 5.9 60 27
96 The Blue-Flag In The Bog 01/13/2003 5.3 62 2
97 Elegy 01/13/2003 5.3 42 8
98 Lament 01/13/2003 6.4 39 25
99 Elegy Before Death 01/13/2003 6.1 31 13
100 Song Of A Second April 01/13/2003 5.9 46 8
101 The Fawn 01/13/2003 5.8 66 5
102 A Visit To The Asylum 01/13/2003 6.1 97 56
103 Autumn Daybreak 01/13/2003 5.6 130 43
104 Being Young And Green 01/13/2003 5.5 84 33
105 Dirge 01/13/2003 5.6 68 10
106 Ashes Of Life 01/13/2003 6.0 87 65
107 The Little Ghost 01/13/2003 6.1 38 16
108 Blight 01/13/2003 5.9 96 22
109 Intention To Escape From Him 01/13/2003 6.3 34 21
110 Sonnets 07: When I Too Long Have Looked Upon Your Face 01/13/2003 5.9 44 22
111 Make Bright The Arrows 01/13/2003 5.7 38 4
112 If Still Your Orchards Bear 01/13/2003 5.8 32 7
113 Low-Tide 01/13/2003 4.8 45 14
114 Here Is A Wound That Never Will Heal, I Know 01/13/2003 6.0 56 56
115 I Know The Face Of Falsehood And Her Tongue 01/13/2003 5.6 44 7
116 Witch-Wife 01/13/2003 5.4 39 23
117 Daphne 01/13/2003 5.7 93 33
118 Eel-Grass 01/13/2003 6.0 33 10
119 Epitaph 01/13/2003 6.1 38 17
120 Journey 01/13/2003 6.2 26 17
121 What Lips My Lips Have Kissed, And Where, And Why (Sonnet XLIII) 01/13/2003 7.8 121 369
122 The Dream 01/13/2003 5.8 62 25
123 Sonnet 06: Bluebeard 01/13/2003 6.1 49 7
124 Burial 01/13/2003 5.3 89 30
125 Assault 01/13/2003 5.6 123 20
126 Modern Declaration 01/13/2003 5.6 34 9
127 The Death Of Autumn 01/13/2003 5.9 59 9
128 Sonnet 05: If I Should Learn, In Some Quite Casual Way 01/13/2003 5.9 48 18
129 Sonnets 06: No Rose That In A Garden Ever Grew 01/13/2003 5.6 42 7
130 Three Songs Of Shattering 01/13/2003 5.9 38 7
131 To Those Without Pity 01/13/2003 5.1 39 10
132 Sonnets 05: Once More Into My Arid Days Like Dew 01/13/2003 5.7 32 8
133 Sonnets 10: Oh, My Beloved, Have You Thought Of This 01/13/2003 5.8 44 6
134 The Philosopher 01/13/2003 5.6 44 22
135 Sonnets 08: And You As Well Must Die, Beloved Dust 01/13/2003 5.5 50 6
136 My Most Distinguished Guest And Learned Friend 01/13/2003 5.4 35 9
137 Sonnets 01: We Talk Of Taxes, And I Call You Friend 01/13/2003 5.4 48 9
138 Pastoral 01/13/2003 5.1 35 5
139 Souvenir 01/13/2003 5.6 46 11
140 Sonnet 01: Thou Art Not Lovelier Than Lilacs,—No 01/13/2003 5.7 44 15
141 Sonnet 02: Time Does Not Bring Relief; You All Have Lied 01/13/2003 6.5 66 64
142 Exiled 01/13/2003 6.5 44 21
143 To The Not Impossible Him 01/13/2003 5.3 52 14
144 The Unexplorer 01/13/2003 6.0 49 7
145 Passer Mortuus Est 01/13/2003 5.8 46 10
146 Pity Me Not Because The Light Of Day 01/13/2003 6.3 38 32
147 An Ancient Gesture 01/13/2003 6.0 107 49
148 The Return From Town 01/13/2003 5.5 47 6
149 Prayer To Persephone 01/13/2003 5.5 33 18
150 The Poet And His Book 01/13/2003 6.2 40 10
151 Ode To Silence 01/13/2003 5.9 33 15
152 Indifference 01/13/2003 5.8 33 11
153 Tavern 01/13/2003 5.6 48 7
154 Sonnet 04: Not In This Chamber Only At My Birth 01/13/2003 5.5 43 4
155 Sonnets 02: Into The Golden Vessel Of Great Song 01/13/2003 5.3 55 3
156 Conscientious Objector 01/13/2003 5.5 179 72
157 Sonnets 03: Not With Libations, But With Shouts And Laughter 01/13/2003 5.8 56 6
158 Feast 01/13/2003 6.0 50 14
159 First Fig 01/13/2003 7.5 73 91
160 Invocation To The Muses 01/13/2003 5.6 36 4
161 Mariposa 01/13/2003 6.6 49 12
162 Departure 01/13/2003 5.5 88 39
163 And do you think that love itself 01/13/2003 6.0 113 62
164 Oh, Oh, You Will Be Sorry 01/13/2003 6.4 38 33
165 Travel 01/13/2003 6.0 40 15
166 The Snow Storm 01/13/2003 5.8 74 7
167 God's World 01/04/2003 6.1 69 38
168 Afternoon on a Hill 01/04/2003 6.6 118 74
169 When the Year grows Old 01/04/2003 5.7 38 16
170 Renascence 01/04/2003 7.0 31 61
[Hata Bildir]